This is the latest recevied weather packets stored in our database for station/object KC1BRV. If no packets are shown the sender has not sent any weather packets the latest 10 day(s).
| Time | Temp. | Humidity | Pressure | Rain* | Wind** | Luminosity | Snow |
|---|---|---|---|---|---|---|---|
| 1788031955 | 25° C | 50% | 1022.9 hPa | 0 mm | - | 58 W/m² | - |
| 1788031651 | 25° C | 48% | 1022.9 hPa | 0 mm | - | 60 W/m² | - |
| 1788031350 | 25° C | 48% | 1022.8 hPa | 0 mm | - | 64 W/m² | - |
| 1788031050 | 25° C | 47% | 1022.9 hPa | 0 mm | - | 70 W/m² | - |
| 1788030745 | 25° C | 49% | 1023 hPa | 0 mm | - | 423 W/m² | - |
| 1788030444 | 24.44° C | 50% | 1022.9 hPa | 0 mm | - | 524 W/m² | - |
| 1788030140 | 25.56° C | 48% | 1022.9 hPa | 0 mm | - | 518 W/m² | - |
| 1788029839 | 26.11° C | 48% | 1022.9 hPa | 0 mm | - | 550 W/m² | - |
| 1788029535 | 25.56° C | 51% | 1023 hPa | 0 mm | - | 602 W/m² | - |
| 1788029234 | 25° C | 49% | 1023 hPa | 0 mm | - | 592 W/m² | - |
| 1788028929 | 25° C | 49% | 1023.2 hPa | 0 mm | - | 604 W/m² | - |
| 1788028628 | 25° C | 49% | 1023.2 hPa | 0 mm | - | 597 W/m² | - |
| 1788028323 | 25° C | 49% | 1023.2 hPa | 0 mm | - | 613 W/m² | - |
| 1788028019 | 25.56° C | 49% | 1023 hPa | 0 mm | - | 623 W/m² | - |
| 1788027714 | 25° C | 50% | 1023.1 hPa | 0 mm | - | 633 W/m² | - |
| 1788027408 | 25° C | 48% | 1023.2 hPa | 0 mm | - | 641 W/m² | - |
| 1788027103 | 25° C | 50% | 1023.3 hPa | 0 mm | - | 644 W/m² | - |
| 1788026803 | 25° C | 52% | 1023.4 hPa | 0 mm | - | 656 W/m² | - |
| 1788026498 | 25° C | 49% | 1023.4 hPa | 0 mm | - | 655 W/m² | - |
| 1788026198 | 24.44° C | 49% | 1023.3 hPa | 0 mm | - | 661 W/m² | - |
| 1788025897 | 25° C | 49% | 1023.4 hPa | 0 mm | - | 669 W/m² | - |
| 1788025597 | 24.44° C | 49% | 1023.4 hPa | 0 mm | - | 675 W/m² | - |
| 1788025297 | 25° C | 48% | 1023.3 hPa | 0 mm | - | 679 W/m² | - |
| 1788024997 | 25° C | 51% | 1023.3 hPa | 0 mm | - | 714 W/m² | - |
| 1788024692 | 24.44° C | 50% | 1023.4 hPa | 0 mm | - | 690 W/m² | - |
* Rain latest hour (hover to see other rain measurements)
** Current wind speed in m/s (hover to see current wind gust speed)